www.pogodaiklimat.ru

Погода и климат >> Архив погоды >> Мьянма >> Моунъюа


ПОГОДА в Моунъюа

  • Прогноз погоды в Моунъюа
  • Монитор погоды в Моунъюа

АРХИВ ПОГОДЫ в Моунъюа

Время (UTC), дата Ветер
(напр.,м/с)
 
Видим.   Явления Облачность Т
(С)
Тd
(С)
f
(%)
Тe
(С)
Тes
(С)
Комфортность P
(гПа)
Po
(гПа)
Тmin
(С)
Tmax
(С)
R
(мм)
R24
(мм)
S
(см)
00 18.08 штиль 0 5000 м 6/4 600 м
[Cu Sc Ac As]
+26.3 +24.6 90 +37 +37 очень
душно
1003.6 994.3 +25.2
03 18.08 ЮВ 1 6000 м 10/10 600 м
[Cb calv]
+28.3 +25.0 82 +41 +41 опасность
перегрева
1004.8 995.5
06 18.08 ЮВ 1 8000 м 9/6 600 м
[Cu Sc Ac As]
+31.4 +25.4 71 +46 +51 опасность
перегрева
1004.7 995.5
09 18.08 ЮВ 1 8000 м 9/6 600 м
[Cu Sc Ac As]
+35.3 +24.0 52 +47 +49 опасность
перегрева
1001.1 992.0
12 18.08 ЮВ 1 6000 м 6/4 600 м
[Cu Sc Ac As]
+34.3 +25.7 61 +49 +49 опасность
перегрева
1000.9 991.8 +35.7
03 19.08 штиль 0 7000 м 9/6 600 м
[Cu Sc Ac As]
+29.0 +24.8 78 +41 +45 опасность
перегрева
1006.9 997.6
06 19.08 ЮЗ 1 8000 м 9/6 600 м
[Cu Sc Ac trans]
+32.7 +25.8 67 +48 +53 опасность
перегрева
1007.0 997.8
09 19.08 ЮЗ 1 8000 м 6/6 600 м
[Cu Sc]
+35.0 +24.0 53 +47 +51 опасность
перегрева
1003.4 994.3
12 19.08 штиль 0 5000 м 1/1 600 м
[Cu hum]
+34.1 +27.0 67 +52 +52 опасность
перегрева
1001.6 992.5 +36.0
00 20.08 штиль 0 5000 м 9/6 600 м
[Cu Sc Ac As]
+28.0 +25.0 84 +40 +41 очень
душно
1004.5 995.2 +26.7
03 20.08 Ю 1 8000 м 6/4 600 м
[Cu Sc Ac As]
+29.4 +24.8 76 +42 +49 опасность
перегрева
1005.7 996.4
06 20.08 ЮВ 1 8000 м 8/5 600 м
[Cu Sc Ac As]
+34.0 +25.7 62 +49 +56 опасность
перегрева
1005.4 996.3
09 20.08 ЮВ 1 13 км 6/4 600 м
[Cu Sc Ac As]
+37.2 +25.8 52 +52 +57 опасность
перегрева
1001.1 992.1
12 20.08 штиль 0 6000 м 6/4 600 м
[Cu Sc Ac As]
+35.4 +26.6 61 +53 +53 опасность
перегрева
999.8 990.8 +37.6
00 21.08 ЮВ 1 5000 м гроза с градом {морось} 10/10 600 м
[Cb cap]
+26.0 +26.0 100 +39 +39 очень
душно
1002.9 993.5 +24.0 16
06 21.08 штиль 0 6000 м {морось} 10/10 600 м
[Cb cap]
+25.0 +25.0 100 +36 +36 очень
душно
1004.0 994.6
09 21.08 штиль 0 6000 м 6/3 600 м
[Cu hum Ac trans]
+27.4 +25.6 90 +40 +47 очень
душно
1001.9 992.6
12 21.08 штиль 0 5000 м 6/1 600 м
[Cu hum Ac trans]
+28.0 +26.8 93 +44 +44 опасность
перегрева
1002.3 993.0 +28.8 0.0
00 22.08 СВ 1 5000 м 9/5 600 м
[Cu Sc Ac trans Ci fib]
+25.7 +24.6 94 +36 +36 очень
душно
1003.7 994.3 +24.7
03 22.08 В 1 6000 м 8/5 600 м
[Cu Sc Ac trans]
+27.8 +25.0 85 +40 +45 очень
душно
1005.4 996.1
06 22.08 Ю 1 8000 м 5/3 600 м
[Cu med, cong Ac trans]
+30.6 +26.7 80 +48 +62 опасность
перегрева
1002.2 993.0
09 22.08 Ю 1 8000 м 6/3 600 м
[Cu Sc Ac trans]
+31.8 +28.1 81 +53 +58 опасность
перегрева
1003.2 994.0
12 22.08 ЮВ 1 6000 м 6/3 600 м
[Cu med, cong Ac trans Ci fib]
+30.6 +28.2 87 +51 +51 опасность
перегрева
1003.2 994.0 +32.5
00 23.08 ЮВ 1 5000 м 10/10 600 м
[Cb calv]
+27.0 +25.6 92 +40 +40 очень
душно
1003.9 994.6 +25.9
03 23.08 ЮВ 1 6000 м 10/10 600 м
[Cb calv]
+27.9 +26.8 94 +44 +44 опасность
перегрева
1005.0 995.7
06 23.08 ЮВ 1 8000 м 10/10 600 м
[Cb calv]
+30.3 +25.3 75 +44 +44 опасность
перегрева
1003.5 994.3
09 23.08 ЮВ 1 8000 м 9/6 600 м
[Cu Sc Ac As]
+32.1 +26.5 72 +49 +51 опасность
перегрева
1002.3 993.1
12 23.08 штиль 0 5000 м 8/5 600 м
[Cu Sc Ac As]
+31.7 +28.1 81 +52 +52 опасность
перегрева
1001.2 992.0 +33.0
00 24.08 штиль 0 5000 м слаб. морось 10/10 600 м
[Cb calv]
+26.3 +26.3 100 +40 +40 очень
душно
1005.8 996.4 +25.3 1
03 24.08 ЮВ 1 7000 м 10/10 600 м
[Cb calv]
+27.7 +26.8 95 +43 +43 опасность
перегрева
1007.3 998.0
06 24.08 ЮВ 1 10 км 9/6 600 м
[Cu Sc Ac As]
+30.3 +25.3 75 +44 +49 опасность
перегрева
1006.1 996.9
09 24.08 штиль 0 8000 м 9/9 600 м
[Cb calv]
+31.8 +26.5 74 +49 +50 опасность
перегрева
1003.7 994.5
12 24.08 штиль 0 4000 м гроза без осадков 10/10 600 м
[Cb calv]
+28.1 +25.0 83 +40 +40 очень
душно
1002.3 993.0 +32.5

 

Местоположение метеостанции Моунъюа (Мьянма): широта 22.10 долгота 95.13 высота над уровнем моря 82 м.

В архиве по умолчанию представлена погода в Моунъюа за последнюю неделю. Архивные данные за месяц целиком и за предыдущие месяцы, начиная с января 2011 года, Вы можете получить, выбрав интересующий диапазон дат из раскрывающегося списка и нажав кнопку "Ввод!".


*Определитесь, кто Вы:
робот инопланетянин человек

Внимание! Время в таблицах - всемирное. Для получения местного времени необходимо прибавить поправку, которая равна 6.5 ч.

Смотрите также архив погоды в соседних городах и на ближайших метеорологических станциях:

Погода в Шуэбо (Мьянма) (81 км)
Погода в Сикайне (Мьянма) (89 км)
Погода в Мандалае (Мьянма) (101 км)
Погода в Ньянг-У (Мьянма) (102 км)
Погода в Мемьо (Мьянма) (137 км)
Погода в Чау (Мьянма) (139 км)
Погода в Миндате (Мьянма) (146 км)
Погода в Калеве (Мьянма) (149 км)
Погода в Мейтхиле (Мьянма) (159 км)
Погода в Хакхе (Мьянма) (167 км)

Пояснения к столбцам:

Ветер - указаны скорость ветра в м/с - средняя за 10 мин, порывы в срок и между сроками (в фигурных скобках) и направление, откуда дует ветер: С - северный, СВ - северо-восточный, В - восточный, ЮВ - юго-восточный, Ю - южный, ЮЗ - юго-западный, З - западный, СЗ - северо-западный.
Видимость - горизонтальная дальность видимости в метрах или километрах. При видимости от 1 до 10 км при отсутствии осадков обычно наблюдается дымка, при ухудшении видимости до 1 км и менее - туман. В сухую погоду видимость может ухудшаться дымом, пылью или мглою.
Явления - указаны атмосферные явления, наблюдавшиеся в срок или в последний час перед сроком; фигурными скобками обозначены явления, наблюдавшиеся между сроками (за 1-3 часа до срока); квадратными скобками обозначены град или гололедные отложения с указанием их диаметра в мм.
Облачность - указаны через наклонную черту общая и нижняя облачность в баллах и высота нижней границы облаков в метрах; квадратными скобками обозначены формы облаков: Ci - перистые, Cs - перисто-слоистые, Cc - перисто-кучевые, Ac - высококучевые, As - высокослоистые, Sc - слоисто-кучевые, Ns - слоисто-дождевые, Cu - кучевые, Cb - кучево-дождевые. Подробнее классификацию облаков см. в Атласе облаков (PDF).
T - Температура воздуха - температура, измеренная на высоте 2 м над землей.
Td - Температура точки росы - температура, при понижении до которой содержащийся в воздухе водяной пар достигнет насыщения.
f - Относительная влажность воздуха - влажноcть воздуха, измеренная на высоте 2 м над землей.
Te - Эффективная температура - температура, которую ощущает одетый по сезону человек в тени. Характеристика душности погоды. При расчете учитывается влияние влажности воздуха и скорости ветра на теплоощущения человека.
Tes - Эффективная температура на солнце - температура, которую ощущает человек, с поправкой на солнечный нагрев. Характеристика знойности погоды. Зависит от высоты солнца над горизонтом, облачности и скорости ветра. Ночью, в пасмурную погоду, а также при ветре 12 м/с и более поправка равна нулю.
P - Атмосферное давление - приведенное к уровню моря атмосферное давление.
Po - Атмосферное давление - измеренное на уровне метеостанции атмосферное давление.
Tmin - Минимальная температура - минимум температуры воздуха на высоте 2 м над землей.
Tmax - Максимальная температура - максимум температуры воздуха на высоте 2 м над землей.
R - Количество осадков - Количество выпавших осадков за период времени, мм. При наведении курсора мыши на число - период времени, за который выпало указанное количество осадков.
R24 - Количество осадков - Количество выпавших осадков за 24 часа, мм.
S - Снежный покров - Высота снежного покрова, см. При наведении курсора мыши на число - состояние снежного покрова и степень покрытия местности в баллах.